Total_Precipitation_Accumulation
3.90 4.13 4.04 4.07 3.81 4.03 4.40 4.56 4.13 4.16 3.96 3.83 3.61 3.35 3.34 3.04 2.75 2.64 2.74 2.79 2.63 2.57 2.83 2.98 2.88 2.87 2.93 2.69 2.45 2.16 1.97 1.95 1.80 1.56 1.40 1.38 1.33 1.23 1.19 1.08 1.06 0.96 0.89
3.47 3.61 3.54 3.66 3.55 3.68 3.85 3.87 3.84 4.19 4.16 3.99 3.62 3.30 3.19 3.17 2.96 2.76 2.96 2.98 2.90 2.61 2.68 3.10 3.37 3.40 3.49 3.33 3.02 2.67 2.36 2.14 1.88 1.59 1.46 1.45 1.37 1.34 1.40 1.42 1.46 1.14 0.98
3.14 3.18 3.25 3.28 3.36 3.31 3.41 3.44 3.50 3.83 3.94 3.85 3.62 3.33 3.16 3.19 3.08 3.01 2.92 3.01 2.92 2.86 2.76 2.91 3.22 3.37 3.68 3.84 3.69 3.24 2.86 2.45 2.03 1.64 1.40 1.34 1.30 1.20 1.27 1.36 1.42 1.24 1.12
2.64 2.79 2.76 2.75 2.84 2.84 2.98 3.25 3.30 3.57 3.86 3.94 3.90 3.52 3.41 3.35 3.12 3.15 3.02 3.00 3.27 2.97 3.16 3.28 3.24 3.20 3.62 4.07 4.28 4.12 3.64 2.91 2.30 1.91 1.62 1.45 1.39 1.30 1.24 1.28 1.30 1.27 1.16
2.49 2.61 2.73 2.80 2.49 2.58 2.76 2.67 3.11 3.40 3.75 3.82 3.36 3.40 3.20 3.13 3.13 2.90 2.98 2.88 3.09 3.18 3.39 3.38 3.38 3.24 3.61 4.43 5.05 5.25 4.73 3.78 2.99 2.53 2.30 2.08 1.82 1.52 1.38 1.37 1.34 1.31 1.23
2.56 2.68 2.56 2.42 2.21 2.44 2.81 2.99 3.45 3.51 3.48 3.49 2.89 3.11 2.92 2.61 2.71 2.87 2.74 2.82 2.85 2.67 3.01 3.39 3.61 3.11 3.46 4.15 4.70 5.19 5.44 5.04 4.22 3.49 3.13 2.86 2.57 2.06 1.58 1.42 1.42 1.42 1.33
2.71 2.79 2.52 2.70 2.36 2.43 2.58 2.73 3.08 3.29 3.26 3.23 3.52 3.55 3.08 2.61 2.60 2.55 2.45 2.72 2.74 2.72 3.10 3.59 3.75 3.58 3.14 2.96 3.11 3.83 4.84 5.52 5.43 4.67 4.08 3.62 3.25 2.66 2.03 1.68 1.48 1.41 1.43
2.69 2.50 2.67 2.48 2.43 2.67 2.71 2.85 3.12 3.25 3.22 3.28 3.48 3.82 3.55 3.45 2.89 2.17 2.39 2.54 2.65 2.89 2.91 3.04 3.38 3.71 3.32 3.29 2.54 2.60 3.55 4.45 5.33 5.39 4.70 3.91 3.56 3.23 2.73 2.28 1.95 1.67 1.55
2.51 2.57 2.51 2.58 2.75 2.45 2.72 2.93 2.97 3.22 3.33 3.21 3.18 3.62 3.62 3.54 3.02 2.38 2.24 2.30 2.52 2.83 2.84 2.94 2.74 3.02 3.26 3.60 3.33 2.63 2.70 3.03 4.09 5.20 5.26 4.47 3.69 3.14 2.94 2.82 2.63 2.24 1.92
2.37 2.39 2.52 2.85 2.99 2.73 2.96 2.52 2.71 3.06 3.28 3.21 3.23 3.02 2.88 2.95 3.14 3.01 2.56 2.30 2.42 2.53 2.62 2.63 2.73 3.00 3.19 3.51 3.49 2.63 2.04 2.13 2.90 4.16 5.01 4.89 4.24 3.47 3.12 3.20 3.52 3.47 2.93
2.79 2.47 2.47 2.76 2.95 2.96 3.06 2.90 3.11 2.91 2.85 2.87 2.98 2.99 2.93 2.78 2.57 2.78 2.82 2.64 2.49 2.19 2.14 2.20 2.37 2.56 2.63 3.01 3.32 2.56 2.08 2.04 2.22 2.83 3.48 3.93 3.99 3.76 3.50 3.62 4.24 4.66 4.49
2.79 2.53 2.51 2.85 2.89 2.93 3.11 2.99 2.96 2.83 2.85 2.87 2.77 2.68 2.95 2.92 2.72 2.81 2.57 2.54 2.47 1.99 1.83 1.91 1.99 2.11 2.28 2.56 2.51 2.34 2.38 2.39 2.20 2.17 2.27 2.52 2.95 3.26 3.55 3.80 4.24 4.73 5.02
2.37 2.48 2.63 2.97 2.93 2.92 2.90 2.97 2.89 2.90 3.00 3.03 2.89 2.71 2.71 2.73 2.76 2.75 2.70 2.36 2.23 1.98 1.96 1.86 1.83 2.07 2.24 2.75 2.92 2.69 2.54 2.68 2.29 1.99 1.89 1.88 2.00 2.29 2.63 3.04 3.59 4.16 4.66
2.34 2.45 2.61 2.59 2.58 2.67 2.57 2.87 2.69 2.67 2.82 2.87 2.71 3.05 2.94 2.57 2.70 2.74 2.88 3.07 2.82 2.49 2.39 2.23 2.14 2.32 2.58 2.85 3.19 3.01 2.53 2.39 2.05 1.89 1.80 1.73 1.74 1.79 1.91 2.09 2.39 2.79 3.16
2.28 2.40 2.43 2.51 2.54 2.54 2.58 2.81 2.71 2.74 2.93 2.76 2.74 3.15 2.95 2.58 2.56 2.64 2.86 3.18 3.44 3.02 2.65 2.55 2.57 2.63 2.74 2.78 2.95 2.69 2.43 2.35 2.08 1.85 1.77 1.74 1.73 1.67 1.65 1.66 1.73 1.90 2.08
2.11 2.27 2.33 2.43 2.50 2.47 2.56 2.73 2.58 2.76 2.85 2.76 2.77 2.87 2.80 2.57 2.60 2.69 2.88 3.11 3.38 3.31 2.85 2.56 2.76 2.80 2.68 2.47 2.77 2.64 2.38 2.29 2.01 1.81 1.63 1.59 1.63 1.69 1.71 1.71 1.67 1.71 1.75
2.10 2.22 2.32 2.40 2.41 2.45 2.60 2.69 2.53 2.68 2.69 2.80 2.73 2.69 2.65 2.85 2.90 2.74 2.91 3.02 3.25 3.48 3.21 2.76 2.85 2.86 2.75 2.51 2.48 2.41 2.30 2.27 2.06 2.01 1.76 1.64 1.57 1.55 1.56 1.60 1.68 1.74 1.72
2.19 2.27 2.38 2.47 2.37 2.46 2.61 2.56 2.55 2.61 2.67 2.66 2.76 2.95 2.88 3.05 3.06 3.01 3.20 3.19 3.27 3.51 3.41 3.09 2.95 2.99 2.85 2.70 2.60 2.38 2.05 1.96 1.97 2.14 1.95 1.77 1.65 1.60 1.55 1.51 1.50 1.47 1.46
2.33 2.31 2.29 2.36 2.50 2.66 2.70 2.54 2.53 2.53 2.45 2.37 2.54 2.81 3.11 3.56 3.41 3.24 3.13 3.05 3.08 3.15 3.36 3.09 2.85 3.05 2.89 2.76 2.72 2.37 2.10 2.04 1.73 1.81 1.86 1.71 1.56 1.43 1.37 1.35 1.33 1.29 1.25
2.33 2.39 2.46 2.48 2.56 2.59 2.55 2.54 2.58 2.58 2.54 2.40 2.41 2.52 2.70 2.99 3.15 3.29 3.09 2.99 3.06 3.14 3.26 3.16 3.08 3.29 3.34 3.17 2.96 2.57 2.38 2.22 1.96 1.66 1.70 1.60 1.50 1.40 1.33 1.28 1.24 1.23 1.23
2.42 2.61 2.65 2.60 2.59 2.55 2.37 2.55 2.68 2.57 2.66 2.57 2.49 2.43 2.27 2.41 2.60 2.80 2.67 2.98 3.17 3.10 3.16 3.21 3.31 3.68 3.68 3.46 2.93 2.66 2.56 2.43 2.15 1.79 1.73 1.53 1.44 1.32 1.29 1.32 1.29 1.25 1.22
2.93 2.97 2.82 2.74 2.65 2.39 2.56 2.61 2.65 2.68 2.77 2.69 2.59 2.54 2.37 2.22 2.20 2.34 2.41 2.63 2.89 2.90 2.98 3.14 3.23 3.41 3.46 3.40 3.16 2.88 2.63 2.47 2.18 1.90 1.91 1.75 1.58 1.49 1.36 1.26 1.38 1.39 1.35
3.05 3.06 3.10 3.04 2.89 2.93 2.92 2.57 2.51 2.53 2.60 2.59 2.75 2.83 2.39 2.00 2.21 2.17 2.25 2.26 2.19 2.35 2.56 2.77 2.93 2.97 3.29 3.42 3.43 3.00 2.82 2.62 2.27 2.09 2.13 1.95 1.82 1.63 1.42 1.35 1.47 1.36 1.34
2.96 2.91 2.85 2.78 2.72 2.69 2.75 2.48 2.42 2.30 2.34 2.36 2.41 2.43 2.39 2.22 2.16 2.18 2.15 2.01 1.85 1.85 1.99 2.06 2.16 2.43 2.80 3.29 3.59 3.32 3.19 2.99 2.63 2.30 2.12 1.98 1.85 1.71 1.52 1.44 1.51 1.37 1.29
2.83 2.75 2.67 2.66 2.60 2.58 2.65 2.45 2.41 2.23 2.19 2.12 2.10 2.10 2.12 1.99 2.06 2.04 1.94 1.88 1.81 1.71 1.73 1.81 1.78 1.91 2.22 2.63 3.14 3.36 3.09 2.75 2.41 2.11 2.03 1.91 1.73 1.81 1.77 1.63 1.55 1.60 1.40
2.95 2.89 2.80 2.79 2.74 2.70 2.83 2.57 2.43 2.23 2.21 2.21 2.30 2.26 2.21 2.04 2.02 1.91 1.75 1.76 1.63 1.52 1.64 1.63 1.55 1.57 1.68 2.03 2.54 2.71 2.83 2.68 2.37 2.10 1.79 1.82 1.76 1.89 1.92 1.65 1.50 1.50 1.45